Location: Isola Pescaroli
(45.0500°N, 10.1667°E)
Time: 00:51:37
(UTC+00:00)

SL-4 R/B - Pass Details

Date: 18 June 2021
Orbit: 428 x 662 km, 51.6° (Epoch: 29 July)

Event Time Altitude Azimuth Distance (km) Brightness Sun altitude
Exits shadow 23:49:20 - 271° (W) 1,823 4.6 -21.2°
Reaches altitude 10° 23:49:34 10° 272° (W) 1,735 4.5 -21.2°
Maximum altitude 23:53:15 39° 343° (NNW) 743 3.1 -21.1°
Drops below altitude 10° 23:56:42 10° 54° (NE) 1,621 5.0 -21.0°
Sets 23:58:53 0° 62° (ENE) 2,466 5.9 -21.0°
